Jackpot

Texas Poker Multi Jackpot System

Kini Telah hadir Jackpot SUPER ROYAL FLUSH

Kini Telah hadir Jackpot 2000 (khusus table VIP keatas).

Ikutilah global jackpot yang tersedia di system kami, dengan system jackpot terbaru dan pertama di indonesia, anda dapat membeli jackpot dengan harga 100 rupiah saja dan menangkan hadiahnya hingga puluhan juta rupiah.

Jackpot bukanlah suatu keharusan untuk dibeli, namun kami memberikan suatu fitur tambahan untuk member tercinta dari www.komopoker.com.

Terdapat tiga pilihan harga jackpot yang bisa anda beli yaitu :100,500,1000 dan 2000(khusus table VIP Keatas) rupiah.

Hadiah dari Multi jackpot system www.komopoker.com

  1. full house x 10 harga jackpot yang anda beli.
      (contoh:anda membeli 1000 maka:1000 X10 = 10.000)
  2. four of kind x 250 harga jackpot yang anda beli
      (contoh:anda membeli 1000 maka:1000 X250 = 250.000)
  3. Straight flush x 1200
      (contoh:anda membeli 1000 maka:1000 X1200 = 1.200.000)
  4. Royal flush x 10000 harga jackpot yang anda beli
      (contoh:anda membeli 1000 maka:1000 X10000 = 10.000.000)
  5. SUPER ROYAL FLUSH x 30000 harga jackpot yang anda beli
      (contoh:anda membeli 1000 maka:1000 X30000 = 30.000.000)

Kondisi kartu

  1. full house adalah kondisi kartu dimana kartu anda dan kartu tengah dengan total 7 kartu bisa mendapatkan nilai 5 kartu dengan kombinasi 1 tris(three of kind) dan 1 pair, contoh 3 kartu 10 dan 2 kartu 5
  2. Four of kind adalah kondisi kartu dimana kartu anda dan kartu tengah dengan total 7 kartu bisa mendapatkan nilai 5 kartu dengan kombinasi 4 kartu yang sama jumlah dan 1 kartu apapun juga contoh anda mendapatkan 4 buah kartu angka 3 dan 1 kartu apapun.
  3. Staright flush adalah kondisi kartu dimana kartu anda dan kartu tengah dengan total 7 kartu bisa mendapatkan nilai 5 kartu dengan kombinasi seri / staright dengan kembang yang sama contoh : urutan kartu dari angka 5, 6, 7, 8 , 9 10 dengan kembang yg sama misalnya as hati
  4. Royal flush adalah kondisi kartu dimana kartu anda dan kartu tengah dengan total 7 kartu bisa mendapatkan nilai 5 kartu dengan kombinasi seri / staright dengan kembang yang sama tetapi kartu tersebut haruslah dimulai dari 10. contoh 10, Queen, Jack, King dan aces dengan kembang yang sama
  5. Super Royal flush adalah kondisi kartu dimana Kedua kartu anda digabung dengan 3 kartu pertama meja haruslah royal flush. contoh kartu anda 10,Queen kembang sama dan 3 kartu pertama meja adalah Jack, King dan aces dengan kembang yang sama

Demikian adalah penjelasan dari Multi Jackpot www.komopoker.com terima kasih dan selamat bermain salam hoki dari kami

Texas Poker Jackpot Winner

TOP SUPER ROYAL FLUSH
No.TanggalNamaPriceWin
118/11 14:42INDRY04Super Royal flush6,000,000
218/11 07:16R_BOSSuper Royal flush3,000,000
318/11 01:56CLICKTOPSuper Royal flush60,000,000
417/11 19:22A8B9403ESuper Royal flush15,000,000
517/11 17:37D3W4M0NY3TSuper Royal flush15,000,000
TOP ROYAL FLUSH
No.TanggalNamaPriceWin
118/11 14:59MARONN1Royal flush1,000,000
218/11 14:56FIR76Royal flush2,000,000
318/11 14:53PAUH001Royal flush5,000,000
418/11 14:53CULET7227Royal flush5,000,000
518/11 14:31P4PUNGKRoyal flush500,000
TOP STRAIGHT FLUSH
No.TanggalNamaPriceWin
118/11 15:03ALCHEMAISTStraight Flush240,000
218/11 15:03SHANTAStraight Flush240,000
318/11 15:00PONGKI18Straight Flush600,000
418/11 14:59M0K4L03Straight Flush600,000
518/11 14:59SUPERGOMStraight Flush240,000
LATEST JACKPOT
No.TanggalNamaPriceWin
118/11 15:04ITUSIKOMOFull House5,000
218/11 15:04MBOBYANK17Full House5,000
318/11 15:04ADHITIALVAFull House10,000
418/11 15:03H3PPY88Full House1,000
518/11 15:03H0RM4TFull House1,000
618/11 15:03MIZUNO35JTFull House2,000
718/11 15:03DONCOL33Full House10,000
818/11 15:03YADAY1981Full House1,000
918/11 15:03LAMERZFull House10,000
1018/11 15:03PHIAN75Full House20,000
1118/11 15:03HIPERSEX69Full House2,000
1218/11 15:03BNN06Full House1,000
1318/11 15:03KINOY07Four Of A Kind25,000
1418/11 15:03DEE2XXFull House2,000
1518/11 15:03LAYUANGFull House5,000
1618/11 15:03BETMEN808Full House1,000
1718/11 15:03NOVALNIKANFull House5,000
1818/11 15:03DHIELONKFull House2,000
1918/11 15:03UNYURFull House1,000
2018/11 15:03RDIET3VBBPFour Of A Kind50,000
2118/11 15:03BAHENOLL97Full House5,000
2218/11 15:03HANSOM88Full House10,000
2318/11 15:03GENTHING_Four Of A Kind25,000
2418/11 15:03JAE24Full House2,000
2518/11 15:03BEILOHYFull House2,000
2618/11 15:03D94O59LUBEFull House2,000
2718/11 15:03SYEM8Full House2,000
2818/11 15:03F29C5D43Full House2,000
2918/11 15:03D0MES88Full House1,000
3018/11 15:03ALCHEMAISTStraight Flush240,000
3118/11 15:03DIMESSIFull House1,000
3218/11 15:03D2NNKUBIO9Full House5,000
3318/11 15:03MATU2444Full House1,000
3418/11 15:03FIKYKURNIAFull House1,000
3518/11 15:03RADEXZONFull House1,000
3618/11 15:03SAM99999Four Of A Kind50,000
3718/11 15:03SHANTAStraight Flush240,000
3818/11 15:03SILOTOB99Full House1,000
3918/11 15:03ROB93Full House5,000
4018/11 15:03JLBVKGDRS8Full House20,000
4118/11 15:03PISANG5225Full House10,000
4218/11 15:03PALAN01Full House5,000
4318/11 15:03SIDEFOFull House5,000
4418/11 15:03ABUU83Full House2,000
4518/11 15:03MB2016Full House10,000
4618/11 15:03BULAVA56Full House1,000
4718/11 15:03GEMBELTAJIFull House5,000
4818/11 15:03SEMOGAJPAFull House5,000
4918/11 15:03C4ANTIK7Full House2,000
5018/11 15:03ANDRIYAS21Four Of A Kind250,000

Domino Multi Jackpot System

Ikutilah global jackpot yang tersedia di system kami, dengan system jackpot terbaru dan pertama di indonesia, anda dapat membeli jackpot dengan harga 100 rupiah saja dan menangkan hadiahnya hingga puluhan juta rupiah.

Jackpot bukanlah suatu keharusan untuk dibeli, namun kami memberikan suatu fitur tambahan untuk member tercinta dari www.komopoker.com.

Terdapat tiga pilihan harga jackpot yang bisa anda beli yaitu :100,500 dan 1000 rupiah.

Hadiah dari Multi jackpot system www.komopoker.com

  1. Murni Kecil x 50 harga jackpot yang anda beli.
      (contoh:anda membeli 1000 maka:1000 X 50 = 50.000)
  2. Murni Besar x 50 harga jackpot yang anda beli
      (contoh:anda membeli 1000 maka:1000 X 50 = 50.000)
  3. BALAK x 100 harga jackpot yang anda beli
      (contoh:anda membeli 1000 maka:1000 X 100 = 100.000)
  4. ENAM DEWA x 6666 harga jackpot yang anda beli
      (contoh:anda membeli 1000 maka:1000 X 6666 = 6.666.000)

Demikian adalah penjelasan dari Multi Jackpot www.komopoker.com terima kasih dan selamat bermain salam hoki dari kami

Domino Jackpot Winner

TOP ENAM DEWA
No.TanggalNamaPriceWin
118/11 15:03THEKING72murni enam3,333,000
218/11 12:38SAFA2102murni enam6,666,000
318/11 08:16SONNY2929murni enam3,333,000
418/11 07:15HAYEYmurni enam3,333,000
518/11 04:11ROVI07murni enam3,333,000
TOP BALAK
No.TanggalNamaPriceWin
118/11 15:02UL05E99balak100,000
218/11 15:00DESIGA12balak10,000
318/11 14:57HOIRI81balak100,000
418/11 14:53F1BF7552balak10,000
518/11 14:51MARLONE10balak100,000
LATEST JACKPOT
No.TanggalNamaPriceWin
118/11 15:03THEKING72murni enam3,333,000
218/11 15:03DESIGA12murni besar5,000
318/11 15:03NAMBRU11murni kecil5,000
418/11 15:02SPREMMVmurni kecil5,000
518/11 15:02UL05E99balak100,000
618/11 15:02KARETA212murni besar25,000
718/11 15:02POTENG78murni kecil25,000
818/11 15:02EF683F6Alucky992,500
918/11 15:02PANANGKALmurni kecil50,000
1018/11 15:00DESIGA12balak10,000
1118/11 15:00DM82997murni besar25,000
1218/11 15:00ZILA24murni besar50,000
1318/11 14:59SNGPMENANGmurni besar50,000
1418/11 14:59KARETA212murni kecil25,000
1518/11 14:58BAH6666murni besar25,000
1618/11 14:57HOIRI81balak100,000
1718/11 14:57QFXY1NA0N6lucky9925,000
1818/11 14:56P4L4GH1murni besar50,000
1918/11 14:56NINGYOmurni besar25,000
2018/11 14:55LB884236murni besar5,000
2118/11 14:55BOSINDA5murni besar50,000
2218/11 14:55ZALIKA17murni kecil25,000
2318/11 14:55EXPRES078murni besar25,000
2418/11 14:54YAND108murni kecil25,000
2518/11 14:53F1BF7552balak10,000
2618/11 14:52MANYUN100murni besar25,000
2718/11 14:51MARLONE10balak100,000
2818/11 14:51AAKHADAK47lucky9925,000
2918/11 14:51D3FFDDBBmurni besar50,000
3018/11 14:50RISMA_009murni besar25,000
3118/11 14:50LOGIKA1murni besar5,000
3218/11 14:49ROKS123murni kecil25,000
3318/11 14:49SISAMBE99murni kecil50,000
3418/11 14:49BARU6978murni kecil25,000
3518/11 14:49NAKHOKI99murni besar25,000
3618/11 14:47RIZKI866murni kecil5,000
3718/11 14:46ADMIN_Qbalak100,000
3818/11 14:46MEROKOK273murni kecil50,000
3918/11 14:45ROKS123murni kecil25,000
4018/11 14:45MR0210RJLbalak10,000
4118/11 14:44D506D977murni besar25,000
4218/11 14:43CINLILIN77murni besar25,000
4318/11 14:43DIKYASA000murni besar50,000
4418/11 14:43BRITTZ19balak50,000
4518/11 14:41BLONJO166murni besar50,000
4618/11 14:41RYNALDI_Amurni besar5,000
4718/11 14:41KPN72murni kecil50,000
4818/11 14:40G4RINGmurni besar5,000
4918/11 14:39MANTAP501lucky9910,000
5018/11 14:39X2UJ4VF13Nmurni kecil50,000

Ceme Multi Jackpot System

Jackpot dilihat dari gabungan kartu pemain dengan kartu bandar. Bandar harus membeli jackpot sebanyak jumlah player yang sedang duduk. Sebagai contoh bila terdapat 3 pemain duduk bermain, dan bandar memutuskan untuk membeli jackpot Rp 1.000, maka pada periode tersebut bandar akan membeli jackpot sebanyak 3xRp1.000 = Rp3.000.

Jackpot bukanlah suatu keharusan untuk dibeli, namun kami memberikan suatu fitur tambahan untuk member tercinta dari www.komopoker.com.

Terdapat tiga pilihan harga jackpot yang bisa anda beli yaitu :100,500 dan 1000 rupiah.

Hadiah dari Multi jackpot system www.komopoker.com

  1. Murni Kecil x 50 harga jackpot yang anda beli.
      (contoh:anda membeli 1000 maka:1000 X 50 = 50.000)
  2. Murni Besar x 50 harga jackpot yang anda beli
      (contoh:anda membeli 1000 maka:1000 X 50 = 50.000)
  3. BALAK x 200 harga jackpot yang anda beli
      (contoh:anda membeli 1000 maka:1000 X 200 = 200.000)
  4. ENAM DEWA x 6666 harga jackpot yang anda beli
      (contoh:anda membeli 1000 maka:1000 X 6666 = 6.666.000)

Demikian adalah penjelasan dari Multi Jackpot www.komopoker.com terima kasih dan selamat bermain salam hoki dari kami

Ceme Jackpot Winner

TOP ENAM DEWA
No.TanggalNamaPriceWin
118/11 14:57SALIS77murni enam6,666,000
218/11 14:57TELOK41murni enam666,600
318/11 14:54NUNU95murni enam6,666,000
418/11 14:54TIHURImurni enam666,600
518/11 14:37RIGID11murni enam666,600
TOP BALAK
No.TanggalNamaPriceWin
118/11 15:02JIONGbalak100,000
218/11 15:02CFBE6XAE53balak200,000
318/11 15:02D52D102Fbalak100,000
418/11 15:01FELZQKGJBKbalak200,000
518/11 15:01SONIC690balak200,000
LATEST JACKPOT
No.TanggalNamaPriceWin
118/11 15:04N3N3Smurni kecil50,000
218/11 15:04WINDY0030murni kecil50,000
318/11 15:04RUBICK29murni kecil50,000
418/11 15:03NEDVED7murni kecil50,000
518/11 15:03MIECYNmurni kecil25,000
618/11 15:03BA5417ENmurni kecil25,000
718/11 15:03RACHMAN414murni kecil5,000
818/11 15:03BETTORR_29murni kecil25,000
918/11 15:03EGOGAUL7murni besar25,000
1018/11 15:03HANTUKYU09murni besar50,000
1118/11 15:03HIDUP09murni kecil50,000
1218/11 15:03DYFUKA91murni besar5,000
1318/11 15:03VIOO807murni besar50,000
1418/11 15:03ARCHER50murni kecil5,000
1518/11 15:03H0KI4N33murni besar50,000
1618/11 15:03TING10murni besar5,000
1718/11 15:03ONO2307murni kecil50,000
1818/11 15:03BULL_77murni kecil50,000
1918/11 15:03LL23murni kecil50,000
2018/11 15:03HANI16Amurni besar50,000
2118/11 15:02VIOO807murni kecil50,000
2218/11 15:02GABOL09murni kecil50,000
2318/11 15:02SUSIWULANmurni besar50,000
2418/11 15:02SIAPO123murni besar25,000
2518/11 15:02ADI120murni kecil25,000
2618/11 15:02AJOSATE124murni kecil5,000
2718/11 15:02LUDO46murni kecil50,000
2818/11 15:02JIONGbalak100,000
2918/11 15:02JAGURRRR77murni besar50,000
3018/11 15:02CFBE6XAE53balak200,000
3118/11 15:02SAARNNOOOOmurni besar50,000
3218/11 15:02REVELINOmurni besar50,000
3318/11 15:02QIUQImurni kecil50,000
3418/11 15:02SUNAN4murni kecil50,000
3518/11 15:02SUNGIKmurni kecil50,000
3618/11 15:02RC9EMMTWRFmurni besar50,000
3718/11 15:02D52D102Fbalak100,000
3818/11 15:02WINDY0030murni besar50,000
3918/11 15:02WINDY0030murni besar50,000
4018/11 15:02METHOL85murni besar50,000
4118/11 15:02CUANHOKI99murni kecil25,000
4218/11 15:01SRNMUS578murni kecil25,000
4318/11 15:01LPX30murni kecil5,000
4418/11 15:01BA5417ENmurni besar25,000
4518/11 15:01MAILAN08murni kecil50,000
4618/11 15:01MITOBOMmurni besar25,000
4718/11 15:01BENEH98murni besar5,000
4818/11 15:01ROYDEWA43murni besar25,000
4918/11 15:01S4D4D0murni besar50,000
5018/11 15:01FELZQKGJBKbalak200,000